This is the latest recevied weather packets stored in our database for station/object DL4MGC-10. If no packets are shown the sender has not sent any weather packets the latest 10 day(s).
| Time | Temp. | Humidity | Pressure | Rain* | Wind** | Luminosity | Snow |
|---|---|---|---|---|---|---|---|
| 1778064885 | 21.11° C | 54% | 1006.4 hPa | - | - | - | - |
| 1778063985 | 20.56° C | 55% | 1006.6 hPa | - | - | - | - |
| 1778063085 | 19.44° C | 59% | 1006.8 hPa | - | - | - | - |
| 1778062184 | 18.89° C | 58% | 1006.8 hPa | - | - | - | - |
| 1778061284 | 19.44° C | 59% | 1006.8 hPa | - | - | - | - |
| 1778060384 | 18.89° C | 63% | 1007.1 hPa | - | - | - | - |
| 1778059484 | 18.33° C | 63% | 1006.9 hPa | - | - | - | - |
| 1778058584 | 18.89° C | 66% | 1007.1 hPa | - | - | - | - |
| 1778057684 | 18.89° C | 66% | 1007.2 hPa | - | - | - | - |
| 1778056784 | 18.33° C | 68% | 1007.2 hPa | - | - | - | - |
| 1778055884 | 17.78° C | 69% | 1007.2 hPa | - | - | - | - |
| 1778054984 | 17.22° C | 72% | 1007.1 hPa | - | - | - | - |
| 1778054084 | 16.11° C | 74% | 1007.1 hPa | - | - | - | - |
| 1778053184 | 15.56° C | 74% | 1007.3 hPa | - | - | - | - |
| 1778052283 | 15° C | 77% | 1007.3 hPa | - | - | - | - |
| 1778051383 | 15° C | 78% | 1007.4 hPa | - | - | - | - |
| 1778050483 | 14.44° C | 80% | 1007.3 hPa | - | - | - | - |
| 1778049583 | 14.44° C | 81% | 1007.3 hPa | - | - | - | - |
| 1778048683 | 14.44° C | 82% | 1007.3 hPa | - | - | - | - |
| 1778047783 | 13.33° C | 83% | 1007.3 hPa | - | - | - | - |
| 1778046883 | 12.78° C | 86% | 1007.4 hPa | - | - | - | - |
| 1778045983 | 11.67° C | 89% | 1007.2 hPa | - | - | - | - |
| 1778045083 | 11.67° C | 89% | 1007.5 hPa | - | - | - | - |
| 1778044183 | 10.56° C | 90% | 1007.7 hPa | - | - | - | - |
| 1778043283 | 11.11° C | 88% | 1007.6 hPa | - | - | - | - |
* Rain since midnight (hover to see other rain measurements)
** Current wind speed in m/s (hover to see current wind gust speed)